Location: Ponte Samoggia
(44.5667°N, 11.1333°E)
Time: 22:17:11
(UTC+00:00)

MSX - Pass Details

Date: 26 May 2022
Orbit: 895 x 905 km, 98.9° (Epoch: 29 June)

Event Time Altitude Azimuth Distance (km) Brightness Sun altitude
Rises 02:14:48 0° 10° (N) 3,533 8.0 -12.3°
Reaches altitude 10° 02:17:14 10° 7° (N) 2,590 7.1 -12.0°
Maximum altitude 02:22:54 60° 289° (WNW) 1,028 4.0 -11.3°
Enters shadow 02:28:03 13° 212° (SSW) 2,387 5.4 -10.6°
